sat.trackr.live / text

‹ back to catalog

STARLINK-11599 [DTC]

NORAD 63670 · 2025-085G

PAYLOAD ACTIVE UNKNOWN

§ Identity

Operator
Country
US
Launch date
2025-04-28
Launch site
AFETR
Launch vehicle
Mass (kg)
RCS (m²)

Purposes: comms

External: N2YO · Heavens-Above · Gunter

§ Orbital elements

Epoch: 2026-09-20T18:52:19.917696Z

Period
91.67 min
Inclination
43.0008°
Eccentricity
0.0001974
Mean motion
15.70861223 rev/d
Perigee alt
355.1 km
Apogee alt
357.8 km
Semi-major
6,734.6 km
B*
1.6158e-3
RAAN
182.6020°
Arg perigee
252.6078°
Mean anomaly
107.4574°
Rev number
8,092

§ Raw data

STARLINK-11599 [DTC]1 63670U 25085G   26263.78634164  .00212458  00000+0  16158-2 0  99942 63670  43.0008 182.6020 0001974 252.6078 107.4574 15.70861223 80921

JSON: /api/v1/satellites/63670 · /tle

For live sub-satellite position, see the globe view (requires WebGL).

§ Visibility from observer

Set your observer location to see the next 7 days of passes ≥ 10°. The values pass through the URL so the page stays shareable.

No JS? Fill the form by hand. The geolocation button needs JavaScript.